Regional Weather Roundup
Issued by NWS

Home | Current Version | Previous Version | Text Only | Print | Product List | Glossary Off
Versions: 1 2 3 4 5 6 7 8 9 10 11 12 13 14 15 16 17 18 19 20 21 22 23 24 25 26 27 28 29 30 31 32 33 34 35 36 37 38 39 40 41 42 43 44 45 46 47 48 49 50

000
ASUS43 KOAX 300110
RWRNE

WEATHER ROUNDUP FOR NEBRASKA
NATIONAL WEATHER SERVICE OMAHA NE
700 PM CST THU JAN 29 2015

NOTES: SATELLITE DATA IS BEING USED TO AUGMENT CLOUD COVER ABOVE
       12000 FEET.
       "FAIR" INDICATES FEW OR NO CLOUDS BELOW 12,000 FEET WITH NO
       SIGNIFICANT WEATHER AND/OR OBSTRUCTIONS TO VISIBILITY.

  * THESE STATIONS DO NOT REPORT WEATHER SUCH AS RAIN...SNOW OR FOG.

NEZ001>004-019>022-054>056-300200-
NEBRASKA PANHANDLE

CITY           SKY/WX    TMP DP  RH WIND       PRES   REMARKS
SCOTTSBLUFF    PTCLDY    32  24  72 E7        30.40F WCI  26
ALLIANCE       CLEAR     27  17  66 SE5       30.42R WCI  22
CHADRON        CLEAR     31  20  63 SE7       30.40F WCI  24
KIMBALL        MOCLDY    31  20  64 SE5       30.38F WCI  26
SIDNEY         PTCLDY    29  16  58 SE8       30.42F WCI  21
$$

NEZ057>060-069>072-079>082-300200-
SOUTHWEST NEBRASKA

CITY           SKY/WX    TMP DP  RH WIND       PRES   REMARKS
NORTH PLATTE   CLEAR     30  14  51 CALM      30.47R
IMPERIAL       PTCLDY    34  18  52 CALM      30.47S
LEXINGTON      CLEAR     30  18  61 CALM      30.48S
MCCOOK         CLEAR     37  20  50 NW5       30.48R WCI  33
OGALLALA       PTCLDY    27  17  64 CALM      30.46S
$$

NEZ005>010-023>029-035>040-094-300200-
NORTH CENTRAL NEBRASKA

CITY           SKY/WX    TMP DP  RH WIND       PRES   REMARKS
VALENTINE      CLEAR     34  19  54 NE5       30.45R WCI  30
AINSWORTH      CLEAR     28  21  72 NE3       30.45S
BROKEN BOW     CLEAR     27  17  66 N3        30.47R
O`NEILL        CLEAR     31  23  73 NE3       30.48S
ORD            CLEAR     30  19  63 CALM      30.48R
THEDFORD       CLEAR     33  19  55 CALM      30.46S
$$

NEZ041-046>049-061>064-073>077-083>087-300200-
SOUTH CENTRAL NEBRASKA

CITY           SKY/WX    TMP DP  RH WIND       PRES   REMARKS
GRAND ISLAND   CLEAR     30  19  63 CALM      30.50R
AURORA         CLEAR     32  21  64 N8        30.49R WCI  24
HASTINGS       CLEAR     30  16  56 NW5       30.49R WCI  25
HEBRON         CLEAR     35  21  57 CALM      30.50R
HOLDREGE       CLEAR     31  18  58 CALM      30.49R
KEARNEY *      CLEAR     34  18  51 W5        30.49R WCI  30
YORK           CLEAR     28  23  80 N7        30.49S WCI  21
$$

NEZ011>018-030>034-042>045-300200-
NORTHEAST NEBRASKA

CITY           SKY/WX    TMP DP  RH WIND       PRES   REMARKS
NORFOLK        CLEAR     30  23  75 N8        30.49R WCI  22
ALBION         CLEAR     29  21  72 CALM      30.49R
BLAIR          PTCLDY    32  24  71 NW9       30.49R WCI  24
COLUMBUS *     CLEAR     28  18  64 N6        30.52R WCI  22
FREMONT        CLEAR     32  24  73 N6        30.51R WCI  26
TEKAMAH        MOCLDY    31  22  69 NW12      30.51R WCI  22
WAYNE          CLEAR     26  21  82 NW7       30.51R WCI  18
$$

NEZ050>053-065>068-078-088>093-300200-
SOUTHEAST NEBRASKA

CITY           SKY/WX    TMP DP  RH WIND       PRES   REMARKS
LINCOLN        CLEAR     30  22  72 NW3       30.52R
OMAHA EPPLEY   MOCLDY    34  24  67 N14       30.49R WCI  25
BEATRICE       CLEAR     29  21  72 CALM      30.50R
FALLS CITY     CLEAR     30  22  72 NW5       30.50R WCI  25
NEBRASKA CITY  CLEAR     31  20  62 NW6       30.50R WCI  25
PLATTSMOUTH    CLEAR     32  23  68 N7        30.49R WCI  26
$$

NEZ044-045-051>053-067-300200-
OMAHA AREA

CITY           SKY/WX    TMP DP  RH WIND       PRES   REMARKS
OMAHA EPPLEY   MOCLDY    34  24  67 N14       30.49R WCI  25
BLAIR          PTCLDY    32  24  71 NW9       30.49R WCI  24
FREMONT        CLEAR     32  24  73 N6        30.51R WCI  26
MILLARD        CLEAR     35  24  66 NW7       30.50R WCI  29
OFFUTT AFB     PTCLDY    34  24  65 NW7       30.48R WCI  28
PLATTSMOUTH    CLEAR     32  23  68 N7        30.49R WCI  26
WAHOO          FAIR      27  21  76 NW7       30.51R WCI  20
$$


USA.gov is the U.S. government's official web portal to all federal, state and local government web resources and services.